Theta_e
352 356 358 353 357 352 348 351 355 354 351 359 358 349 347 350 351 349 347 355 357 359 356 358 356 357 356 357 358 357 355 355 353 356 357 357 358 357 356 354 355 354 354
357 353 357 358 358 355 355 352 355 353 354 355 353 351 351 352 353 351 347 349 360 360 359 356 356 357 357 357 357 357 353 357 356 358 359 359 358 358 357 355 353 352 354
358 350 351 355 359 356 355 355 356 351 354 354 351 355 353 352 353 351 351 348 354 359 356 356 356 358 357 357 357 358 358 359 359 357 359 358 359 359 358 358 355 355 355
359 352 353 354 357 359 354 355 355 351 351 352 350 353 357 355 353 354 351 351 345 345 354 357 357 357 357 356 356 359 360 359 360 360 358 359 360 358 359 358 357 358 358
361 353 353 354 355 356 356 355 356 354 351 349 349 350 355 354 354 356 352 350 348 340 341 352 358 358 355 358 358 359 359 360 361 360 361 359 359 360 359 360 359 358 358
354 357 357 356 354 356 357 357 357 357 353 351 352 346 349 357 355 355 354 353 348 349 348 348 350 354 358 359 360 362 362 362 362 361 361 361 360 359 359 359 359 359 358
354 359 357 356 356 355 355 358 357 356 354 355 352 344 351 352 353 352 354 353 354 350 350 352 349 349 353 358 358 360 362 361 361 361 361 361 361 361 358 358 358 358 358
356 358 360 355 354 353 357 356 357 355 353 352 347 346 335 340 348 352 353 352 351 351 349 349 350 349 349 349 351 359 361 362 363 361 361 361 360 360 360 359 359 358 358
359 359 360 360 353 356 350 357 357 357 345 353 355 342 335 331 340 349 349 352 354 352 353 351 350 351 353 349 351 354 358 358 361 364 363 362 361 359 359 358 358 357 357
361 360 361 357 355 361 352 356 358 356 356 345 353 358 352 343 337 335 346 347 353 352 351 351 350 351 352 353 357 354 355 356 358 361 363 363 362 361 361 359 358 357 357
358 358 358 361 360 358 358 358 357 356 358 351 350 351 353 353 348 339 335 344 349 350 353 351 351 351 350 352 350 354 355 355 356 358 360 361 363 364 363 363 361 360 359
358 357 356 358 355 361 358 358 356 358 358 358 355 356 351 348 343 341 340 342 341 349 352 352 351 350 351 352 356 357 356 355 353 353 354 356 358 361 364 364 365 363 363
361 357 357 353 357 358 361 361 362 361 360 357 359 354 357 356 354 349 341 343 342 346 346 352 352 351 351 353 353 357 358 353 351 350 350 351 354 356 358 361 363 364 365
358 360 361 360 357 362 362 364 362 359 359 358 359 361 357 356 356 352 349 341 338 338 348 349 350 352 354 351 356 357 356 349 349 347 347 348 350 351 353 355 357 358 359
360 353 360 360 362 360 362 361 359 357 359 358 357 359 359 358 356 356 356 351 341 335 339 351 351 356 351 357 357 358 358 350 347 346 344 344 345 347 349 350 351 351 352
364 359 358 358 358 362 359 362 359 362 359 357 356 358 357 356 357 356 356 353 348 346 338 349 348 354 346 353 360 358 360 356 348 346 344 343 343 344 346 346 347 347 347
362 364 367 362 356 355 357 360 358 359 357 356 357 358 356 356 355 356 353 353 350 346 339 351 348 357 353 355 356 358 362 358 355 344 344 343 342 342 343 343 343 344 344
365 366 364 364 358 359 359 357 359 357 355 357 354 354 353 356 358 354 354 353 353 355 350 346 352 351 352 358 359 357 359 356 355 351 343 342 341 340 339 339 338 338 338
359 355 361 361 358 359 358 357 359 355 356 357 354 353 355 357 355 353 353 354 353 352 352 350 346 353 354 355 354 356 357 356 355 352 342 340 340 339 337 335 333 332 330
358 356 358 357 358 356 350 354 359 357 357 355 353 354 356 356 353 353 353 354 353 350 350 348 346 349 351 353 353 348 347 351 351 353 352 350 345 341 338 335 333 332 327
353 356 357 355 356 340 335 340 345 350 349 350 352 354 351 345 341 339 345 349 351 352 351 349 347 347 346 347 345 349 346 348 351 356 352 353 353 348 348 338 341 339 332
353 353 351 351 341 333 329 332 335 342 349 346 346 348 348 345 343 341 339 339 340 342 343 341 340 340 343 340 343 344 340 338 334 345 345 342 346 342 343 345 344 339 335
352 352 351 349 343 331 323 325 330 339 345 344 345 345 342 338 334 341 339 339 340 337 337 340 340 339 340 341 341 341 342 340 338 340 337 332 338 336 338 338 335 335 334
351 351 347 348 337 323 319 320 325 337 344 342 342 343 340 331 322 326 332 333 337 341 342 341 343 342 340 337 338 337 338 339 339 338 339 331 338 337 342 343 337 333 330
347 348 347 345 338 327 317 317 322 335 343 341 341 337 337 327 319 320 328 330 333 336 335 335 332 329 328 327 330 332 331 331 329 332 336 334 336 335 338 340 342 334 329
345 343 342 339 331 331 314 315 316 328 333 338 332 325 320 321 316 317 323 330 330 330 331 334 335 335 330 336 331 335 334 331 330 329 337 329 333 333 330 339 337 340 340
Wind_Speed
2 3 1 3 2 4 5 4 3 2 2 2 1 9 11 3 4 5 5 17 14 14 14 14 12 12 11 11 11 11 9 10 9 8 9 9 8 8 7 5 4 3 4
2 2 3 3 4 6 5 2 3 1 3 3 4 8 9 7 4 7 6 9 15 15 15 14 14 13 12 12 11 11 11 9 10 9 9 8 6 7 6 6 4 2 1
0 2 4 5 4 5 7 5 3 2 1 2 5 5 6 8 6 4 5 6 10 17 16 14 10 11 11 11 12 11 10 11 10 9 9 9 8 8 7 7 6 4 3
2 2 5 7 5 6 5 4 5 3 3 3 5 5 4 5 7 7 6 6 7 9 11 16 14 12 12 12 12 12 11 10 11 10 9 9 8 8 8 6 6 5 4
4 4 6 7 7 6 4 1 4 4 3 5 4 4 2 4 7 7 8 9 12 12 9 15 14 14 15 14 14 13 14 13 12 12 11 10 9 9 9 9 8 8 7
4 5 6 8 5 5 4 2 4 4 4 5 1 4 4 4 4 5 6 6 9 8 9 12 10 10 16 16 14 14 14 13 13 12 12 12 12 11 11 10 10 10 9
6 7 6 6 6 5 6 3 4 5 4 4 2 4 2 4 5 5 6 5 5 5 7 7 8 7 9 17 15 15 16 16 15 15 14 13 12 13 12 11 11 11 10
6 8 8 6 6 6 5 5 6 3 2 3 4 2 2 3 2 5 5 7 7 8 6 8 11 11 9 10 13 18 16 17 17 18 16 15 15 14 14 13 12 12 12
7 8 8 8 6 5 4 5 5 6 3 1 3 4 2 3 3 1 4 6 7 4 5 7 9 10 7 10 14 16 20 17 18 19 18 17 16 17 17 16 16 15 15
5 7 6 3 7 4 5 5 5 6 3 4 2 2 1 5 3 1 2 2 6 7 9 6 8 7 9 7 13 18 22 20 21 21 19 19 19 18 17 17 17 16 16
7 4 5 7 6 5 5 6 5 6 4 3 4 2 1 2 3 3 2 3 2 7 6 7 8 9 10 9 8 13 20 23 22 21 21 21 20 20 21 20 19 18 18
6 7 8 8 7 5 5 4 7 6 4 3 3 2 2 2 2 4 2 4 7 6 5 7 7 7 6 6 8 11 21 24 24 23 22 21 21 21 22 22 21 21 20
3 6 6 6 5 6 6 5 4 3 3 4 4 3 3 2 2 2 3 3 3 3 0 5 8 7 6 5 7 12 15 19 20 20 20 20 20 21 21 22 22 22 22
2 3 6 7 7 6 6 5 3 4 5 4 5 3 2 3 4 2 2 3 2 3 3 4 6 8 7 8 10 14 7 16 19 19 19 18 18 18 19 20 20 20 21
2 4 4 3 4 6 5 6 4 5 4 5 6 4 3 3 4 3 3 2 4 4 4 3 3 3 5 4 9 8 7 14 16 17 16 16 17 18 18 18 18 18 19
3 1 4 2 2 3 5 5 5 4 4 4 5 6 5 5 4 4 3 2 2 4 3 4 2 4 11 5 9 7 6 7 15 15 17 18 19 19 19 19 19 19 20
3 1 1 3 4 1 4 5 5 4 5 4 5 2 6 6 4 3 3 4 3 3 4 3 1 2 5 7 4 4 5 6 7 19 21 20 19 18 18 19 20 20 20
3 4 3 4 4 4 4 4 3 4 5 4 4 3 4 3 5 4 4 5 4 4 1 3 2 2 4 4 4 5 5 7 4 8 18 17 17 18 20 18 18 18 18
5 5 6 4 3 4 5 5 5 4 2 1 2 2 2 3 3 4 2 2 2 2 2 1 3 2 1 1 1 3 2 4 6 11 10 14 15 15 14 15 16 17 18
4 4 4 4 2 5 9 6 2 5 4 3 3 2 1 1 2 2 3 3 3 3 2 2 3 3 1 1 2 2 3 3 5 6 8 6 11 17 19 18 19 22 17
5 3 1 4 2 9 7 8 8 6 5 5 2 5 5 6 7 5 3 4 4 1 2 2 3 3 3 3 4 4 4 4 5 4 4 4 3 5 8 14 15 18 17
5 3 4 3 10 7 11 11 9 7 1 2 1 4 5 4 5 7 6 5 2 3 2 2 3 2 2 3 4 2 2 2 2 3 5 5 4 5 5 5 3 14 11
4 2 3 6 9 7 13 13 12 7 4 6 4 4 5 9 11 7 9 9 6 5 2 3 3 4 4 3 4 6 6 4 3 5 6 7 5 6 6 7 11 11 12
2 2 3 4 9 6 11 13 14 6 5 4 3 4 7 8 7 5 5 6 6 3 4 5 4 3 4 3 2 4 4 5 4 5 5 7 8 9 7 6 9 13 7
4 2 3 3 9 7 9 10 10 8 1 2 5 7 7 6 5 8 4 5 5 5 6 3 6 0 5 5 2 2 4 3 5 4 7 4 5 5 4 4 5 9 5
5 4 5 6 9 7 8 9 9 5 6 2 7 7 14 7 5 7 5 5 5 5 6 5 4 5 4 2 2 3 3 4 5 4 3 6 6 7 5 4 8 6 9
Wind_Direction
222 323 305 205 222 229 240 246 141 169 152 217 151 127 256 296 172 135 146 162 162 156 160 159 169 167 164 160 158 163 170 174 172 169 158 161 159 151 152 153 138 117 83
143 300 281 242 262 269 303 177 183 188 114 196 256 177 201 184 186 146 156 168 161 158 160 165 171 172 168 167 172 173 175 177 172 179 177 168 167 173 171 166 173 186 153
177 309 301 283 248 253 259 152 149 55 245 227 262 269 207 176 183 158 149 166 168 173 173 172 176 173 172 176 178 180 183 180 182 186 184 186 183 184 186 200 191 215 232
252 139 263 262 269 259 222 198 144 182 228 245 245 232 206 178 182 190 194 174 177 181 182 190 188 191 183 187 190 191 187 196 190 197 198 200 198 198 204 207 203 232 238
229 183 241 242 255 274 236 252 152 177 228 226 271 293 219 189 191 192 195 195 183 190 183 196 195 195 198 195 194 196 199 196 197 202 202 207 214 211 211 213 217 225 233
224 243 248 254 224 253 228 174 197 202 216 222 198 296 248 166 170 179 205 196 197 206 176 180 186 195 203 201 200 201 203 200 196 204 211 214 215 220 223 223 225 227 233
217 239 243 248 240 225 235 181 206 212 269 255 135 221 181 160 169 179 183 191 191 210 199 158 176 194 198 208 210 211 207 209 208 209 211 217 225 222 223 228 229 234 238
218 236 245 255 251 224 233 207 207 197 240 243 202 135 128 66 315 220 178 180 193 191 219 184 182 192 191 194 203 210 212 210 210 215 216 216 217 220 222 223 228 233 239
219 227 241 230 250 188 223 220 178 230 198 323 66 142 111 175 139 277 184 186 180 187 212 177 198 210 205 179 195 203 209 212 214 217 218 221 221 219 220 222 222 226 230
238 228 232 264 229 187 207 230 212 221 180 210 198 188 193 141 154 357 279 233 171 199 199 206 211 233 200 193 193 196 202 205 210 217 219 222 223 225 227 230 230 231 233
228 217 235 246 225 206 199 240 248 205 204 181 206 139 185 184 196 177 186 182 212 211 193 185 203 207 210 205 215 195 191 202 209 217 221 226 228 227 227 230 232 233 235
194 218 224 227 220 213 199 225 246 178 218 285 122 158 152 171 200 181 194 182 195 226 194 197 206 205 195 205 209 203 187 197 205 211 218 225 230 233 237 239 239 240 241
180 218 210 226 217 207 197 201 232 221 224 240 216 182 192 256 288 224 77 242 163 197 267 207 204 196 201 202 222 232 187 192 199 205 211 216 223 229 234 238 242 245 248
120 257 190 196 198 198 213 185 199 236 207 236 248 260 189 252 262 259 284 104 61 19 227 180 179 201 197 196 216 222 194 194 199 203 207 213 220 227 232 237 242 246 250
152 235 280 246 216 197 202 196 200 212 258 218 228 245 269 233 240 267 244 230 152 186 234 194 162 121 28 236 204 210 215 191 201 206 211 215 219 224 230 235 239 244 248
171 309 158 159 256 212 210 186 210 222 228 232 224 200 231 265 259 268 281 301 245 188 204 194 179 149 178 232 227 196 206 160 208 211 213 215 218 220 224 230 235 239 242
180 121 236 136 166 187 210 190 221 220 217 229 277 249 214 260 283 279 349 324 286 36 346 331 116 141 152 226 177 212 208 221 203 212 217 218 219 220 223 226 228 231 235
160 162 196 169 169 169 174 170 198 218 226 196 238 248 237 240 262 294 308 316 327 46 128 327 46 148 206 191 227 215 248 271 299 231 224 219 217 218 222 226 229 231 232
21 77 97 99 97 121 178 173 171 161 223 198 242 256 264 232 267 303 271 284 306 306 356 308 296 104 280 34 322 298 309 307 300 304 227 228 230 233 234 233 236 236 233
86 86 73 52 85 67 46 37 108 158 158 155 154 176 127 131 205 286 282 292 309 306 293 272 273 288 301 218 224 222 277 243 258 270 280 212 208 224 231 232 232 234 235
73 58 70 96 50 62 34 13 3 344 55 30 39 118 116 119 97 66 4 27 23 321 269 265 276 278 266 289 239 245 234 262 269 239 281 282 245 222 238 238 248 242 235
53 51 52 44 66 59 11 20 9 331 67 204 29 49 135 100 105 76 47 13 353 310 317 346 323 358 356 336 345 357 321 341 322 342 14 319 327 321 318 311 250 237 226
122 96 62 78 77 63 18 4 359 316 13 70 55 33 47 53 25 11 3 341 275 233 241 335 309 294 333 60 359 346 0 357 333 321 321 303 294 287 284 284 279 229 225
145 127 116 99 95 63 27 3 345 303 319 82 62 47 68 81 37 21 342 340 330 321 211 221 253 26 39 355 303 295 291 278 277 278 258 263 265 263 273 269 282 285 280
131 177 109 122 104 79 28 12 354 322 96 91 67 46 91 94 46 25 335 314 311 305 341 81 78 343 300 282 242 311 285 290 300 305 23 322 348 319 324 325 348 360 264
165 142 116 89 103 105 45 21 7 316 311 295 108 90 64 89 55 23 336 310 285 40 341 347 321 286 243 52 336 212 309 323 327 310 82 8 336 3 331 332 343 347 347